Location: Doughton Park
(36.4224°N, 81.1835°W)
Time: 18:27:20
(UTC-04:00)

Amateur Radio Satellites - All Passes

Search period start: 26 September 2016 17:57
Search period end: 27 September 2016 17:57
Location: Doughton Park, 36.4224°N, 81.1835°W

Satellite Date Start Highest point End Downlink Frequencies (MHz)
Time Altitude Azimuth
KKS-1 26 Sep 17:58:02 18:02:15 46° 287° (WNW) 18:06:28 437.445
NOAA 15 26 Sep 17:58:55 18:03:25 29° 68° (ENE) 18:07:57 137.62
Cubesat XI-IV 26 Sep 18:09:27 18:13:58 29° 68° (ENE) 18:18:30 437.490
CUTE-I 26 Sep 18:10:05 18:14:38 30° 68° (ENE) 18:19:11 437.470
DOVE 4 26 Sep 18:10:25 18:12:56 14° 66° (ENE) 18:15:23 437.250
HORYU 2 26 Sep 18:13:41 18:17:56 47° 260° (W) 18:22:12 437.375
LilacSat-2 26 Sep 18:17:24 18:20:33 26° 71° (ENE) 18:23:41 437.200
AIST 1 26 Sep 18:18:00 18:21:24 23° 271° (W) 18:24:47
O/OREOS (USA 219) 26 Sep 18:22:07 18:26:44 83° 70° (ENE) 18:31:19 437.305
STARS 26 Sep 18:36:07 18:40:07 36° 288° (WNW) 18:44:06 437.465
CUBESAT XI-V 26 Sep 18:36:28 18:41:12 87° 104° (ESE) 18:45:51 437.345
NOAA 18 26 Sep 18:37:28 18:42:39 45° 71° (ENE) 18:47:50 137.9125
RS-15 26 Sep 18:40:03 18:44:47 13° 95° (E) 18:49:36 29.354- 29.394
GOMX 1 26 Sep 19:15:47 19:21:08 55° 260° (W) 19:26:18 467.674
BRITE-PL 26 Sep 19:19:36 19:24:11 25° 266° (W) 19:28:48 437.365/2234.400
CUSAT 1 26 Sep 19:20:47 19:26:02 35° 87° (E) 19:32:24 437.405
CINEMA 3 26 Sep 19:32:13 19:35:46 23° 70° (ENE) 19:39:14 145.822/145.860
GONETS M04 26 Sep 19:36:56 19:44:09 27° 70° (ENE) 19:51:14
NOAA 15 26 Sep 19:38:25 19:43:04 31° 263° (W) 19:47:46 137.62
HO-68 26 Sep 19:39:34 19:46:01 38° 66° (ENE) 19:52:28 435.675
DOVE 4 26 Sep 19:45:05 19:50:09 61° 259° (W) 19:54:58 437.250
Cubesat XI-IV 26 Sep 19:49:16 19:53:56 31° 263° (W) 19:58:36 437.490
CUTE-I 26 Sep 19:49:57 19:54:34 30° 263° (W) 19:59:12 437.470
LilacSat-2 26 Sep 19:52:18 19:54:49 17° 266° (W) 19:57:21 437.200
COMPASS 1 26 Sep 19:54:27 19:56:13 12° 66° (ENE) 19:58:00 437.405
CUTE 1.7 + AOD 2 26 Sep 20:13:28 20:17:30 46° 74° (ENE) 20:21:34 437.475
CANX-2 26 Sep 20:14:19 20:18:26 55° 75° (ENE) 20:22:36 2200.000
SEEDS 26 Sep 20:17:53 20:21:42 35° 72° (ENE) 20:25:32 437.485
NOAA 18 26 Sep 20:19:28 20:23:28 21° 265° (W) 20:27:28 137.9125
Cosmos 2499 26 Sep 20:22:58 20:30:10 44° 78° (ENE) 20:37:51 435.465 / 435.565
AO-85 26 Sep 20:37:35 20:40:03 13° 108° (ESE) 20:42:27 145.980
DANDE 26 Sep 20:37:38 20:42:12 55° 92° (E) 20:48:20 436.750
STRAND 1 26 Sep 20:40:52 20:46:02 73° 102° (ESE) 20:51:10 437.568
RS-15 26 Sep 20:43:28 20:54:51 73° 114° (ESE) 21:06:53 29.354- 29.394
AAUSAT CUBESAT 2 26 Sep 20:44:39 20:48:28 37° 73° (ENE) 20:52:20 437.432
ISS 26 Sep 20:48:13 20:51:16 39° 134° (SE) 20:54:20 145.825
CUBEBUG 2 26 Sep 20:48:56 20:52:55 41° 74° (ENE) 20:56:51 437.445
FUNcube-1 26 Sep 21:02:19 21:05:26 21° 69° (ENE) 21:08:33 145.935
CUSAT 1 26 Sep 21:02:27 21:07:55 36° 289° (WNW) 21:14:33 437.405
CINEMA 3 26 Sep 21:08:52 21:12:46 28° 263° (W) 21:16:33 145.822/145.860
UWE-3 26 Sep 21:10:00 21:14:00 46° 74° (ENE) 21:17:59 435.000/436.395/437.385
HO-68 26 Sep 21:27:06 21:33:38 38° 262° (W) 21:40:12 435.675
COMPASS 1 26 Sep 21:27:18 21:31:19 48° 261° (W) 21:35:22 437.405
GONETS M04 26 Sep 21:32:50 21:41:25 60° 269° (W) 21:49:55
ZACube-1 26 Sep 21:42:23 21:46:30 71° 77° (ENE) 21:50:38 437.345
Oscar 11 26 Sep 21:42:52 21:47:07 70° 76° (ENE) 21:51:26 145.826/435.025
CUTE 1.7 + AOD 2 26 Sep 21:51:48 21:53:34 12° 268° (W) 21:55:20 437.475
CANX-2 26 Sep 21:54:15 21:54:36 10° 269° (W) 21:54:57 2200.000
SEEDS 26 Sep 21:54:51 21:57:29 16° 267° (W) 22:00:07 437.485
JUGNU 26 Sep 21:57:01 21:59:49 13° 172° (S) 22:02:35 437.505
AO-85 26 Sep 22:14:47 22:20:01 70° 301° (WNW) 22:24:58 145.980
PRISM 26 Sep 22:14:59 22:19:08 71° 103° (ESE) 22:23:12 437.425
HUMSAT D 26 Sep 22:15:21 22:18:51 28° 71° (ENE) 22:22:23 437.325/437.525
DELFI C3 26 Sep 22:16:17 22:20:14 65° 76° (ENE) 22:24:13 145.870
Cosmos 2499 26 Sep 22:16:28 22:23:00 32° 273° (W) 22:29:57 435.465 / 435.565
AAUSAT CUBESAT 2 26 Sep 22:21:41 22:24:04 15° 267° (W) 22:26:27 437.432
STRAND 1 26 Sep 22:22:24 22:24:33 13° 298° (WNW) 22:26:41 437.568
DANDE 26 Sep 22:22:25 22:25:48 17° 298° (WNW) 22:29:45 436.750
ISS 26 Sep 22:25:19 22:27:51 21° 330° (NNW) 22:30:26 145.825
CUBEBUG 2 26 Sep 22:27:38 22:29:42 13° 267° (W) 22:31:46 437.445
FUNcube-1 26 Sep 22:38:03 22:41:31 26° 264° (W) 22:45:00 145.935
UWE-3 26 Sep 22:49:15 22:50:41 12° 268° (W) 22:52:08 435.000/436.395/437.385
ANTELSAT 26 Sep 22:52:25 22:55:52 22° 95° (E) 22:59:21 437.575/2403.000
RS-15 26 Sep 22:57:55 23:08:22 36° 318° (NW) 23:19:20 29.354- 29.394
TIGRISAT 26 Sep 23:12:50 23:16:53 35° 98° (E) 23:20:59 435.000
AISAT 26 Sep 23:32:06 23:35:05 18° 67° (ENE) 23:38:04 437.250
JUGNU 26 Sep 23:44:47 23:48:00 15° 183° (S) 23:51:14 437.505
M-CUBED/EXP-1 PRIME 26 Sep 23:45:07 23:48:28 24° 67° (ENE) 23:51:39 437.505
UKube-1 26 Sep 23:47:31 23:48:54 11° 64° (ENE) 23:50:18 .
QB50P1 26 Sep 23:49:47 23:50:12 10° 91° (E) 23:50:40 145.935-145.965
HUMSAT D 26 Sep 23:51:37 23:54:28 18° 266° (W) 23:57:21 437.325/437.525
UNISAT 6 26 Sep 23:52:46 23:57:10 73° 284° (WNW) 00:01:39 437.425
AO-85 27 Sep 00:00:18 00:01:14 10° 317° (NW) 00:02:10 145.980
POPSAT HIP 1 27 Sep 00:01:22 00:03:45 15° 93° (E) 00:06:07 437.405
JAS-2 27 Sep 00:01:25 00:07:03 21° 90° (E) 00:12:28 435.910
50 SAT 27 Sep 00:08:52 00:12:12 36° 73° (ENE) 00:15:34 437.505
ESTCUBE 1 27 Sep 00:09:23 00:13:53 88° 253° (WSW) 00:18:28 437.505/2401.250
DX 1 27 Sep 00:11:03 00:14:47 28° 70° (ENE) 00:18:31 434.975-435.025
VELOX 1 27 Sep 00:14:17 00:18:35 49° 74° (ENE) 00:22:54 145.980
NANOSAT C BR1 27 Sep 00:17:48 00:21:05 22° 96° (E) 00:24:23 145.865
CUBEBUG 1 27 Sep 00:21:40 00:26:05 80° 77° (ENE) 00:30:31 437.445
ANTELSAT 27 Sep 00:28:44 00:32:32 29° 289° (WNW) 00:36:24 437.575/2403.000
SRMSAT 27 Sep 00:39:04 00:42:04 14° 174° (S) 00:45:05 437.500
QB50P2 27 Sep 00:39:24 00:43:28 46° 100° (E) 00:47:32 145.880/145.840
POLYITAN 1 27 Sep 00:41:37 00:45:41 46° 99° (E) 00:49:45 437.675
AUBIESAT-1 27 Sep 00:42:18 00:46:29 87° 251° (WSW) 00:50:23 437.475
TIGRISAT 27 Sep 00:50:15 00:53:18 19° 292° (WNW) 00:56:24 435.000
TISAT 1 27 Sep 00:59:33 01:02:02 15° 67° (ENE) 01:04:31 437.305
AISAT 27 Sep 01:07:06 01:11:14 37° 261° (W) 01:15:23 437.250
SO-50 27 Sep 01:08:27 01:12:56 55° 57° (ENE) 01:17:19 436.795
SPROUT 27 Sep 01:08:29 01:12:44 73° 258° (WSW) 01:17:01 437.525
M-CUBED/EXP-1 PRIME 27 Sep 01:19:21 01:22:51 25° 257° (WSW) 01:26:12 437.505
RS-15 27 Sep 01:19:29 01:26:19 16° 352° (N) 01:33:14 29.354- 29.394
UKube-1 27 Sep 01:20:08 01:24:24 58° 259° (W) 01:28:41 .
Cosmos 2491 27 Sep 01:20:40 01:26:07 17° 65° (ENE) 01:31:30 435.465 / 435.565
DUCHIFAT 1 27 Sep 01:21:21 01:25:30 65° 284° (WNW) 01:29:39 145.980
BEESAT 3 27 Sep 01:21:29 01:25:03 36° 114° (ESE) 01:28:39 437.485
QB50P1 27 Sep 01:22:10 01:26:16 55° 286° (WNW) 01:30:23 145.935-145.965
BUGSAT 1 27 Sep 01:28:47 01:32:44 56° 100° (E) 01:36:42 437.445
JUGNU 27 Sep 01:35:12 01:36:11 10° 193° (SSW) 01:37:10 437.505
POPSAT HIP 1 27 Sep 01:35:44 01:39:39 38° 287° (WNW) 01:43:33 437.405
50 SAT 27 Sep 01:44:42 01:45:50 11° 267° (W) 01:46:59 437.505
JAS-2 27 Sep 01:44:45 01:52:37 72° 287° (WNW) 02:00:03 435.910
DX 1 27 Sep 01:47:31 01:50:56 22° 264° (W) 01:54:21 434.975-435.025
VELOX 1 27 Sep 01:53:15 01:55:17 13° 268° (W) 01:57:19 145.980
NANOSAT C BR1 27 Sep 01:53:16 01:56:45 26° 290° (WNW) 02:00:12 145.865
Oscar 19 27 Sep 02:07:24 02:11:47 27° 96° (E) 02:16:07 437.125/150
BEESAT 2 27 Sep 02:14:09 02:18:03 74° 118° (ESE) 02:22:01 435.950
QB50P2 27 Sep 02:16:51 02:18:50 13° 294° (WNW) 02:20:49 145.880/145.840
ITUPSAT 1 27 Sep 02:18:12 02:21:56 23° 68° (ENE) 02:25:42 437.325
POLYITAN 1 27 Sep 02:19:05 02:21:03 13° 294° (WNW) 02:23:02 437.675
YUBILEINY 27 Sep 02:19:14 02:24:29 18° 79° (E) 02:29:41 435.215
SRMSAT 27 Sep 02:27:17 02:30:26 15° 184° (S) 02:33:35 437.500
SWISSCUBE 27 Sep 02:31:14 02:35:34 36° 71° (ENE) 02:39:55 437.505
TISAT 1 27 Sep 02:33:26 02:37:20 38° 261° (W) 02:41:16 437.305
BEESAT 27 Sep 02:44:08 02:48:38 44° 72° (ENE) 02:53:10 436.000
SO-50 27 Sep 02:50:50 02:52:51 13° 253° (WSW) 02:54:51 436.795
Gurwin Techsat 1B 27 Sep 02:55:39 03:00:36 38° 98° (E) 03:05:32 435.225
BEESAT 3 27 Sep 03:00:09 03:02:49 17° 310° (NW) 03:05:31 437.485
BUGSAT 1 27 Sep 03:07:32 03:07:36 10° 295° (WNW) 03:07:40 437.445
Cosmos 2491 27 Sep 03:15:12 03:24:06 88° 265° (W) 03:32:55 435.465 / 435.565
ISS 27 Sep 03:18:23 03:20:56 20° 30° (NNE) 03:23:28 145.825
AO-7 27 Sep 03:18:39 03:19:33 10° 89° (E) 03:20:27 29.400- 29.500
KKS-1 27 Sep 03:21:16 03:21:30 10° 63° (ENE) 03:21:45 437.445
JAS-2 27 Sep 03:32:36 03:36:11 14° 304° (NW) 03:39:44 435.910
RS-15 27 Sep 03:36:19 03:45:38 24° 29° (NNE) 03:54:52 29.354- 29.394
Oscar 19 27 Sep 03:46:33 03:51:02 31° 291° (WNW) 03:55:29 437.125/150
Cosmos 2504 27 Sep 03:52:25 03:58:14 25° 85° (E) 04:03:53 435.465 / 435.565
ITUPSAT 1 27 Sep 03:55:20 03:59:34 32° 263° (W) 04:03:50 437.325
BEESAT 2 27 Sep 03:55:32 03:56:21 11° 315° (NW) 03:57:11 435.950
STARS 27 Sep 03:56:29 03:58:06 12° 64° (ENE) 03:59:43 437.465
SWISSCUBE 27 Sep 04:09:57 04:13:25 20° 265° (W) 04:16:54 437.505
YUBILEINY 27 Sep 04:11:16 04:20:06 83° 277° (W) 04:28:55 435.215
MOZHAYETS 4 27 Sep 04:19:59 04:24:31 75° 76° (ENE) 04:29:06
BEESAT 27 Sep 04:23:40 04:26:37 16° 267° (W) 04:29:34 436.000
AIST 2 27 Sep 04:27:09 04:31:10 66° 118° (ESE) 04:35:17 435.215
PCSat 27 Sep 04:31:48 04:36:29 31° 108° (ESE) 04:41:12 145.827
Gurwin Techsat 1B 27 Sep 04:36:07 04:40:17 24° 293° (WNW) 04:44:27 435.225
ITAMSAT 1 27 Sep 04:36:41 04:41:55 83° 286° (WNW) 04:47:09 435.822/435.867
KKS-1 27 Sep 04:53:01 04:57:27 70° 258° (WSW) 05:01:54 437.445
ISS 27 Sep 04:54:25 04:57:33 42° 226° (SW) 05:00:41 145.825
AO-7 27 Sep 05:05:14 05:13:32 71° 105° (ESE) 05:21:47 29.400- 29.500
AIST 1 27 Sep 05:07:57 05:10:37 16° 87° (E) 05:13:16
Cosmos 2491 27 Sep 05:15:10 05:19:32 15° 283° (WNW) 05:23:54 435.465 / 435.565
STARS 27 Sep 05:29:37 05:33:55 57° 259° (WSW) 05:38:16 437.465
CUBESAT XI-V 27 Sep 05:36:50 05:41:27 63° 75° (ENE) 05:46:07 437.345
Cosmos 2504 27 Sep 05:43:58 05:51:10 49° 281° (W) 05:58:07 435.465 / 435.565
RS-15 27 Sep 05:48:39 06:01:03 69° 56° (ENE) 06:13:04 29.354- 29.394
BRITE-PL 27 Sep 05:50:27 05:52:36 13° 89° (E) 05:54:41 437.365/2234.400
CUSAT 1 27 Sep 05:58:04 06:04:15 26° 67° (ENE) 06:09:40 437.405
HORYU 2 27 Sep 06:06:57 06:11:05 37° 99° (E) 06:15:13 437.375
AIST 2 27 Sep 06:08:22 06:10:05 12° 314° (NW) 06:11:49 435.215
YUBILEINY 27 Sep 06:13:46 06:18:14 15° 296° (WNW) 06:22:43 435.215
PCSat 27 Sep 06:14:56 06:19:46 33° 305° (NW) 06:24:39 145.827
NOAA 15 27 Sep 06:18:12 06:20:26 13° 91° (E) 06:22:40 137.62
Cubesat XI-IV 27 Sep 06:30:26 06:33:05 14° 92° (E) 06:35:44 437.490
CUTE-I 27 Sep 06:30:48 06:33:34 14° 92° (E) 06:36:19 437.470
AIST 1 27 Sep 06:43:49 06:47:51 36° 282° (WNW) 06:51:54
AO-85 27 Sep 06:49:35 06:53:32 44° 56° (NE) 06:57:16 145.980
O/OREOS (USA 219) 27 Sep 06:55:14 06:57:17 13° 98° (E) 06:59:20 437.305
AO-7 27 Sep 06:59:16 07:05:32 25° 303° (WNW) 07:11:48 29.400- 29.500
NOAA 18 27 Sep 07:02:34 07:06:53 23° 96° (E) 07:11:10 137.9125
DANDE 27 Sep 07:17:35 07:25:42 49° 75° (ENE) 07:33:10 436.750
CUBESAT XI-V 27 Sep 07:17:51 07:19:12 11° 270° (W) 07:20:33 437.345
GOMX 1 27 Sep 07:20:54 07:25:11 52° 99° (E) 07:29:16 467.674
LilacSat-2 27 Sep 07:26:31 07:30:17 56° 100° (E) 07:34:05 437.200
BRITE-PL 27 Sep 07:26:51 07:31:30 50° 287° (WNW) 07:35:47 437.365/2234.400
CUSAT 1 27 Sep 07:39:19 07:46:47 56° 268° (W) 07:52:59 437.405
HORYU 2 27 Sep 07:44:19 07:47:20 18° 293° (WNW) 07:50:22 437.375
DOVE 4 27 Sep 07:46:59 07:50:56 39° 98° (E) 07:54:48 437.250
STRAND 1 27 Sep 07:54:08 07:59:13 80° 76° (ENE) 08:04:20 437.568
NOAA 15 27 Sep 07:55:22 08:00:39 68° 286° (WNW) 08:05:53 137.62
RS-15 27 Sep 08:02:20 08:12:35 33° 257° (WSW) 08:22:37 29.354- 29.394
CANX-2 27 Sep 08:03:53 08:05:31 12° 91° (E) 08:07:08 2200.000
Cubesat XI-IV 27 Sep 08:08:14 08:13:32 64° 286° (WNW) 08:18:50 437.490
CUTE-I 27 Sep 08:08:42 08:13:59 63° 286° (WNW) 08:19:16 437.470
O/OREOS (USA 219) 27 Sep 08:31:45 08:36:10 50° 293° (WNW) 08:40:38 437.305
AO-85 27 Sep 08:31:53 08:33:25 12° 253° (WSW) 08:34:57 145.980
GONETS M04 27 Sep 08:34:46 08:42:22 34° 85° (E) 08:50:00
NOAA 18 27 Sep 08:42:33 08:47:37 40° 290° (WNW) 08:52:41 137.9125
CUBEBUG 2 27 Sep 08:44:37 08:45:20 10° 92° (E) 08:46:02 437.445
HO-68 27 Sep 08:56:47 09:03:42 49° 101° (E) 09:10:34 435.675
Cosmos 2499 27 Sep 08:57:40 09:04:05 36° 88° (E) 09:10:20 435.465 / 435.565
DANDE 27 Sep 09:00:48 09:08:09 35° 273° (W) 09:14:59 436.750
GOMX 1 27 Sep 09:01:11 09:02:43 12° 296° (WNW) 09:04:15 467.674
PRISM 27 Sep 09:01:46 09:05:33 35° 72° (ENE) 09:09:22 437.425
UWE-3 27 Sep 09:03:48 09:05:19 12° 92° (E) 09:06:52 435.000/436.395/437.385
CINEMA 3 27 Sep 09:04:59 09:09:10 80° 103° (ESE) 09:13:27 145.822/145.860
COMPASS 1 27 Sep 09:12:42 09:16:26 30° 97° (E) 09:20:08 437.405
DOVE 4 27 Sep 09:26:05 09:28:16 14° 294° (WNW) 09:30:27 437.250
Oscar 11 27 Sep 09:33:50 09:36:29 16° 93° (E) 09:39:06 145.826/435.025
ZACube-1 27 Sep 09:33:57 09:36:46 17° 94° (E) 09:39:36 437.345
CUTE 1.7 + AOD 2 27 Sep 09:36:18 09:40:32 60° 285° (WNW) 09:44:45 437.475
CANX-2 27 Sep 09:37:27 09:41:37 49° 285° (WNW) 09:45:45 2200.000
SEEDS 27 Sep 09:39:16 09:43:31 82° 285° (WNW) 09:47:46 437.485
BEESAT 3 27 Sep 09:42:17 09:43:50 12° 46° (NE) 09:45:22 437.485
ANTELSAT 27 Sep 09:50:09 09:52:24 14° 66° (ENE) 09:54:39 437.575/2403.000
AAUSAT CUBESAT 2 27 Sep 10:04:15 10:08:28 80° 283° (WNW) 10:12:38 437.432
TIGRISAT 27 Sep 10:09:44 10:13:02 22° 69° (ENE) 10:16:19 435.000
CUBEBUG 2 27 Sep 10:18:01 10:22:13 57° 285° (WNW) 10:26:32 437.445
FUNcube-1 27 Sep 10:27:14 10:31:33 66° 101° (E) 10:35:57 145.935
GONETS M04 27 Sep 10:30:25 10:38:50 48° 283° (WNW) 10:47:19
BEESAT 2 27 Sep 10:34:57 10:38:01 20° 51° (NE) 10:41:03 435.950
UWE-3 27 Sep 10:37:49 10:42:01 52° 285° (WNW) 10:46:18 435.000/436.395/437.385
PRISM 27 Sep 10:38:20 10:40:56 16° 266° (W) 10:43:34 437.425
HO-68 27 Sep 10:45:07 10:51:03 29° 297° (WNW) 10:56:59 435.675
COMPASS 1 27 Sep 10:48:44 10:51:45 19° 291° (WNW) 10:54:45 437.405
UNISAT 6 27 Sep 10:48:59 10:53:14 70° 76° (ENE) 10:57:29 437.425
Cosmos 2499 27 Sep 10:50:42 10:57:04 34° 285° (WNW) 11:03:24 435.465 / 435.565
Oscar 11 27 Sep 11:08:40 11:12:43 39° 287° (WNW) 11:16:46 145.826/435.025
NANOSAT C BR1 27 Sep 11:08:59 11:10:48 13° 66° (ENE) 11:12:38 145.865
ZACube-1 27 Sep 11:09:08 11:13:07 37° 287° (WNW) 11:17:11 437.345
BEESAT 3 27 Sep 11:17:56 11:21:53 63° 243° (WSW) 11:25:47 437.485
PHONESAT 2.4 27 Sep 11:19:45 11:22:31 39° 153° (SSE) 11:25:18 2401.200-2431.200
ANTELSAT 27 Sep 11:24:40 11:28:44 43° 261° (W) 11:32:48 437.575/2403.000
QB50P2 27 Sep 11:29:52 11:33:19 25° 70° (ENE) 11:36:46 145.880/145.840
DELFI C3 27 Sep 11:30:55 11:34:50 51° 285° (WNW) 11:38:42 145.870
POLYITAN 1 27 Sep 11:32:06 11:35:33 25° 70° (ENE) 11:39:00 437.675
HUMSAT D 27 Sep 11:35:43 11:39:59 80° 101° (E) 11:44:16 437.325/437.525
TIGRISAT 27 Sep 11:45:59 11:49:34 26° 263° (W) 11:53:09 435.000
JAS-2 27 Sep 11:53:40 11:59:33 41° 67° (ENE) 12:06:10 435.910
ESTCUBE 1 27 Sep 12:05:02 12:08:40 23° 95° (E) 12:12:16 437.505/2401.250
FUNcube-1 27 Sep 12:06:42 12:07:14 10° 295° (WNW) 12:07:48 145.935
VELOX 1 27 Sep 12:09:24 12:10:37 11° 92° (E) 12:11:50 145.980
DUCHIFAT 1 27 Sep 12:10:18 12:14:26 62° 75° (ENE) 12:18:34 145.980
QB50P1 27 Sep 12:11:36 12:15:47 76° 78° (ENE) 12:19:59 145.935-145.965
BEESAT 2 27 Sep 12:12:18 12:15:52 31° 247° (WSW) 12:19:24 435.950
CUBEBUG 1 27 Sep 12:13:55 12:16:48 17° 94° (E) 12:19:40 437.445
BUGSAT 1 27 Sep 12:16:14 12:19:43 27° 71° (ENE) 12:23:12 437.445
POPSAT HIP 1 27 Sep 12:25:03 12:29:15 75° 259° (WSW) 12:33:28 437.405
NANOSAT C BR1 27 Sep 12:42:02 12:46:05 48° 260° (W) 12:50:09 145.865
AIST 2 27 Sep 12:51:18 12:54:33 21° 51° (NE) 12:57:47 435.215
PHONESAT 2.4 27 Sep 12:55:46 12:58:37 46° 348° (NNW) 13:01:30 2401.200-2431.200
SPROUT 27 Sep 12:57:29 13:00:49 22° 95° (E) 13:04:08 437.525
AISAT 27 Sep 12:59:25 13:03:40 47° 100° (E) 13:07:52 437.250
M-CUBED/EXP-1 PRIME 27 Sep 13:00:50 13:03:13 19° 101° (E) 13:05:37 437.505
QB50P2 27 Sep 13:05:42 13:09:02 23° 264° (W) 13:12:23 145.880/145.840
POLYITAN 1 27 Sep 13:07:57 13:11:16 22° 265° (W) 13:14:35 437.675
UKube-1 27 Sep 13:10:05 13:13:44 26° 97° (E) 13:17:21 .
50 SAT 27 Sep 13:11:59 13:15:39 65° 101° (E) 13:19:16 437.505
Oscar 19 27 Sep 13:21:41 13:26:14 32° 69° (ENE) 13:30:49 437.125/150
PCSat 27 Sep 13:22:36 13:26:03 17° 48° (NE) 13:29:29 145.827
DX 1 27 Sep 13:36:58 13:41:19 75° 102° (ESE) 13:45:38 434.975-435.025
JAS-2 27 Sep 13:39:09 13:44:39 31° 267° (W) 13:50:49 435.910
ESTCUBE 1 27 Sep 13:41:32 13:45:25 28° 290° (WNW) 13:49:17 437.505/2401.250
VELOX 1 27 Sep 13:43:04 13:47:23 55° 286° (WNW) 13:51:40 145.980
CUBEBUG 1 27 Sep 13:49:14 13:53:10 34° 288° (WNW) 13:57:03 437.445
BUGSAT 1 27 Sep 13:52:02 13:55:03 20° 265° (W) 13:58:05 437.445
AUBIESAT-1 27 Sep 13:57:36 14:00:54 77° 288° (WNW) 14:04:13 437.475
AO-7 27 Sep 14:13:33 14:17:56 16° 52° (NE) 14:22:19 29.400- 29.500
Gurwin Techsat 1B 27 Sep 14:14:08 14:19:13 48° 72° (ENE) 14:24:18 435.225
ITAMSAT 1 27 Sep 14:16:06 14:18:25 13° 62° (ENE) 14:20:47 435.822/435.867
Cosmos 2491 27 Sep 14:19:24 14:25:31 21° 81° (E) 14:31:37 435.465 / 435.565
TISAT 1 27 Sep 14:19:35 14:23:25 35° 98° (E) 14:27:16 437.305
YUBILEINY 27 Sep 14:24:59 14:33:11 44° 76° (ENE) 14:41:20 435.215
AIST 2 27 Sep 14:29:18 14:33:04 33° 247° (WSW) 14:36:50 435.215
PHONESAT 2.4 27 Sep 14:32:17 14:35:04 36° 5° (N) 14:37:51 2401.200-2431.200
SPROUT 27 Sep 14:33:08 14:36:41 26° 290° (WNW) 14:40:13 437.525
M-CUBED/EXP-1 PRIME 27 Sep 14:35:25 14:37:39 17° 295° (WNW) 14:39:53 437.505
SWISSCUBE 27 Sep 14:36:17 14:37:36 11° 91° (E) 14:38:56 437.505
AISAT 27 Sep 14:37:24 14:39:42 14° 295° (WNW) 14:41:59 437.250
UKube-1 27 Sep 14:46:13 14:49:37 23° 291° (WNW) 14:53:00 .
BEESAT 27 Sep 14:48:18 14:50:45 14° 92° (E) 14:53:11 436.000
Oscar 19 27 Sep 15:01:08 15:05:30 27° 264° (W) 15:09:54 437.125/150
PCSat 27 Sep 15:04:34 15:09:58 70° 246° (WSW) 15:15:20 145.827
SO-50 27 Sep 15:20:03 15:24:24 34° 113° (ESE) 15:28:43 436.795
Cosmos 2504 27 Sep 15:37:58 15:45:09 48° 79° (ENE) 15:52:47 435.465 / 435.565
ITAMSAT 1 27 Sep 15:52:06 15:57:15 71° 258° (WSW) 16:02:26 435.822/435.867
Gurwin Techsat 1B 27 Sep 15:55:46 15:59:22 18° 267° (W) 16:02:59 435.225
TISAT 1 27 Sep 15:56:10 15:58:46 16° 293° (WNW) 16:01:21 437.305
ITUPSAT 1 27 Sep 15:57:34 16:02:24 79° 102° (ESE) 16:07:13 437.325
AO-7 27 Sep 16:01:03 16:09:21 76° 70° (ENE) 16:17:38 29.400- 29.500
PHONESAT 2.4 27 Sep 16:08:23 16:11:21 85° 201° (SSW) 16:14:19 2401.200-2431.200
SWISSCUBE 27 Sep 16:11:01 16:15:47 65° 286° (WNW) 16:20:32 437.505
Cosmos 2491 27 Sep 16:12:38 16:21:23 71° 279° (W) 16:30:13 435.465 / 435.565
MOZHAYETS 4 27 Sep 16:18:12 16:21:46 21° 95° (E) 16:25:18
YUBILEINY 27 Sep 16:22:05 16:29:44 36° 274° (W) 16:37:22 435.215
BEESAT 27 Sep 16:24:08 16:28:48 53° 287° (WNW) 16:33:26 436.000
KKS-1 27 Sep 16:46:54 16:50:36 26° 97° (E) 16:54:18 437.445
AIST 1 27 Sep 16:53:11 16:57:13 39° 79° (E) 17:01:12
BRITE-PL 27 Sep 16:57:28 17:00:58 17° 65° (ENE) 17:04:26 437.365/2234.400
SO-50 27 Sep 17:00:47 17:04:53 27° 309° (NW) 17:08:58 436.795
HORYU 2 27 Sep 17:02:50 17:06:27 25° 69° (ENE) 17:10:04 437.375
O/OREOS (USA 219) 27 Sep 17:05:56 17:09:07 18° 59° (ENE) 17:12:18 437.305
STARS 27 Sep 17:21:42 17:25:32 29° 97° (E) 17:29:20 437.465
Cosmos 2504 27 Sep 17:32:00 17:38:09 28° 274° (W) 17:44:38 435.465 / 435.565
NOAA 15 27 Sep 17:35:23 17:38:47 18° 64° (ENE) 17:42:13 137.62
CUBESAT XI-V 27 Sep 17:36:55 17:40:14 19° 94° (E) 17:43:31 437.345
ITUPSAT 1 27 Sep 17:38:44 17:39:32 10° 298° (WNW) 17:40:20 437.325
PHONESAT 2.4 27 Sep 17:45:28 17:47:10 14° 215° (SW) 17:48:51 2401.200-2431.200
Cubesat XI-IV 27 Sep 17:49:44 17:53:22 19° 65° (ENE) 17:57:01 437.490
